NIMIQ 4

Last updated on Fri Jul 11 2025 00:02:42 GMT+0000 (Coordinated Universal Time)

1 33373U 08044A 25191.54539870 -.00000207 00000+0 00000+0 0 9992 2 33373 0.0089 344.8274 0001918 135.2864 282.9118 1.00271473 61551
UTC large
Height (km)
Speed (km/s)
/
Latitude / Longitude
Inclination (degrees)
Orbital Period (minutes)
Azimuth
Elevation
Range (km)
Doppler Factor

Next 0 passes for location: London (51.5072 / 0.1276)

Sorry there are no passes over London.